Volver al catálogo

STARLINK-33721

ActivoComunicacionesVLEO
NORAD 63480·PAYLOAD·🇺🇸 United States

Lanzado Apr 6, 2025 desde Cape Canaveral Space Force Station

Loading…

Próximos Pases (próximas 24 horas)

TLE

ActualizadoSource: CelesTrak SupGP

Época: Sep 15, 2026, 02:24 UTC

1 63480C 25070W   26258.10048611 -.00004615  00000+0 -16732-3 0  2586
2 63480  43.0029 266.4370 0001264 264.8473 198.8135 15.27546863    19

Sigue STARLINK-33721 en tiempo real con AllMySat

Download on the App Store